This is the latest recevied weather packets stored in our database for station/object IU2DXM. If no packets are shown the sender has not sent any weather packets the latest 10 day(s).
| Time | Temp. | Humidity | Pressure | Rain* | Wind** | Luminosity | Snow |
|---|---|---|---|---|---|---|---|
| 1777667437 | 16.11° C | - | - | 0 mm | - | 0 W/m² | - |
| 1777656616 | 20° C | - | - | 0 mm | - | 86 W/m² | - |
| 1777651215 | 21.11° C | - | - | 0 mm | - | 360 W/m² | - |
| 1777647616 | 21.11° C | - | - | 0 mm | - | 526 W/m² | - |
| 1777647018 | 21.11° C | - | - | 0 mm | - | 552 W/m² | - |
| 1777645818 | 21.11° C | - | - | 0 mm | - | 600 W/m² | - |
| 1777635617 | 18.89° C | - | - | 0 mm | - | 824 W/m² | - |
| 1777627217 | 16.67° C | - | - | 0 mm | - | 716 W/m² | - |
| 1777626017 | 16.67° C | - | - | 0 mm | - | 686 W/m² | - |
| 1777623637 | 15.56° C | - | - | 0 mm | - | 597 W/m² | - |
| 1777620617 | 13.89° C | - | - | 0 mm | - | 472 W/m² | - |
| 1777619417 | 13.33° C | - | - | 0 mm | - | 420 W/m² | - |
| 1777618817 | 12.78° C | - | - | 0 mm | - | 391 W/m² | - |
| 1777618217 | 12.78° C | - | - | 0 mm | - | 354 W/m² | - |
| 1777617037 | 12.22° C | - | - | 0 mm | - | 136 W/m² | - |
| 1777612816 | 9.44° C | - | - | 0 mm | - | 44 W/m² | - |
| 1777607416 | 8.33° C | - | - | 0 mm | - | 0 W/m² | - |
| 1777603216 | 8.89° C | - | - | 0 mm | - | 0 W/m² | - |
| 1777602616 | 9.44° C | - | - | 0 mm | - | 0 W/m² | - |
| 1777594818 | 10° C | - | - | 0 mm | - | 0 W/m² | - |
| 1777592418 | 10.56° C | - | - | 0 mm | - | 0 W/m² | - |
| 1777591218 | 11.11° C | - | - | 0 mm | - | 0 W/m² | - |
| 1777589417 | 11.11° C | - | - | 0 mm | - | 0 W/m² | - |
| 1777588817 | 11.67° C | - | - | 0 mm | - | 0 W/m² | - |
| 1777587037 | 11.67° C | - | - | 0 mm | - | 0 W/m² | - |
* Rain latest hour (hover to see other rain measurements)
** Current wind speed in m/s (hover to see current wind gust speed)